Dewpoint
59 58 57 57 57 58 59 59 60 59 59 59 59 60 59 58 58 59 57 57 57 57 56 56 55 55 54 53 53 54 54 55 56 55 54 54 55 54 53 51 48 51 52 53 52 55 56 57 58 59 60 60 59 60 58 57 58 57 55 52 52 54 49 46 44 47 50 52 48 37 40 41 37 38 37 42 45 44 43 44 44 44 39 39 40
58 58 58 58 58 59 59 59 59 59 60 59 59 58 58 58 58 57 58 57 56 55 55 56 55 54 52 52 53 52 53 53 54 54 52 54 55 55 54 50 49 50 54 50 53 54 57 55 55 57 58 58 59 55 56 55 53 52 53 54 51 51 53 47 45 43 46 50 46 44 43 43 34 39 42 44 45 45 39 42 42 41 42 43 41
59 58 58 58 58 59 58 58 59 60 59 59 59 57 58 58 57 58 57 56 56 55 55 55 54 53 52 52 51 52 52 53 55 54 53 52 51 53 55 53 51 51 51 51 47 51 53 55 55 56 57 58 59 57 57 55 52 51 54 53 54 53 49 47 47 45 46 46 48 41 43 42 44 37 40 44 45 43 41 42 40 37 38 45 41
58 57 58 58 59 59 58 59 59 59 59 59 59 59 58 57 56 57 56 55 54 56 56 54 53 53 52 51 51 51 52 53 53 51 50 50 50 50 51 52 52 52 50 48 47 50 52 52 53 55 56 56 55 55 55 56 56 54 55 56 56 55 55 53 50 50 46 45 46 38 42 45 44 43 40 43 45 45 44 46 44 40 40 40 40
58 58 58 59 59 59 59 59 59 59 59 59 59 58 58 57 56 55 56 55 55 55 55 55 54 52 53 49 50 50 51 51 51 52 54 54 52 52 51 50 52 51 52 52 54 52 51 52 51 51 53 52 53 51 50 53 48 51 51 50 51 54 55 53 50 49 48 44 46 45 47 43 41 42 41 40 42 43 44 44 42 41 42 40 38
58 58 58 58 58 59 59 59 59 59 59 59 58 58 57 56 56 56 54 54 55 55 54 54 53 51 50 49 49 49 50 51 49 49 51 53 54 54 53 52 51 50 51 51 51 52 53 51 54 53 52 52 53 55 53 52 48 50 49 46 44 50 53 52 52 50 49 45 46 46 46 43 42 44 41 42 42 40 40 43 43 43 41 42 39
59 59 59 59 58 59 58 59 59 59 59 58 57 55 55 55 54 53 54 54 54 53 54 53 54 52 51 52 51 50 50 51 52 53 52 52 53 52 54 54 53 54 52 50 51 52 52 51 53 54 52 51 53 54 55 55 53 51 50 52 47 49 51 51 48 48 48 48 46 45 44 46 45 44 40 41 42 41 43 43 44 41 44 43 40
57 57 58 57 57 58 58 59 58 58 57 56 55 55 54 54 54 54 53 54 54 52 51 52 54 52 54 53 53 54 54 53 52 52 52 53 54 54 54 54 53 54 55 52 53 52 53 53 53 53 52 52 53 54 56 54 54 53 53 50 50 50 50 50 49 46 46 47 44 44 44 44 45 47 41 40 40 40 39 42 43 43 45 46 44
57 57 57 57 57 58 58 58 58 57 56 56 56 56 56 56 55 54 53 54 55 53 54 53 52 52 52 54 53 55 55 55 54 54 53 53 54 54 54 51 53 52 54 53 54 54 53 54 54 53 56 57 52 53 54 54 54 53 54 52 51 50 49 48 47 45 45 46 45 46 44 44 43 45 43 43 41 41 44 46 45 44 43 42 39
56 56 56 56 56 57 58 58 57 57 56 56 56 57 57 58 58 57 56 55 55 54 53 54 53 53 52 52 54 56 56 57 54 49 49 53 54 51 55 55 54 53 54 54 56 55 54 56 57 57 53 53 50 47 46 47 50 54 54 54 51 50 48 47 45 44 43 41 40 42 43 43 43 46 45 46 46 48 48 46 46 45 44 43 42
56 55 55 55 57 56 57 57 57 57 56 55 56 57 57 57 58 59 57 56 57 55 55 54 54 54 53 54 54 56 57 55 46 45 45 46 53 56 54 56 56 55 55 55 53 56 57 56 58 57 56 54 53 45 44 43 44 44 46 49 51 52 51 50 48 48 44 43 43 44 41 42 45 47 46 48 49 48 47 46 46 45 43 42 40
50 52 54 56 56 57 57 56 56 56 56 56 57 57 58 58 58 58 58 56 55 56 55 55 55 55 55 54 55 56 56 43 40 43 44 43 45 55 55 55 57 56 56 56 55 56 57 58 59 59 59 58 57 55 48 44 42 43 42 42 43 43 44 53 52 51 51 47 46 45 44 44 44 49 46 48 47 47 48 47 46 43 43 42 41
47 46 46 47 50 52 52 52 53 54 55 55 55 56 55 55 55 56 55 56 56 55 55 56 56 56 57 55 56 57 54 41 40 40 40 42 41 46 53 55 55 55 56 56 56 57 57 58 58 59 58 56 55 56 55 54 43 43 43 43 42 42 41 41 41 56 52 50 49 49 48 47 46 48 49 49 50 48 48 45 46 45 44 43 43
42 42 42 43 44 45 47 45 46 46 46 47 48 48 49 50 51 52 53 53 52 54 55 54 55 55 56 57 57 54 49 42 40 40 39 38 38 45 54 56 56 55 55 55 57 57 58 57 57 57 59 58 58 58 56 56 54 52 52 51 52 50 41 41 41 38 47 52 52 51 52 52 48 50 53 52 50 46 46 45 47 46 46 45 47
40 41 41 41 41 41 41 42 43 44 43 42 43 43 44 45 46 48 49 49 49 49 50 51 51 52 53 54 54 51 45 39 39 40 39 39 39 43 56 57 57 57 57 57 57 57 57 57 57 57 58 58 58 57 57 57 56 56 55 54 53 53 53 53 53 53 52 53 53 53 54 54 53 52 53 50 49 50 49 49 49 47 45 43 44
39 39 39 39 39 40 42 41 40 41 43 42 41 42 43 44 44 46 47 47 47 47 46 47 47 47 49 51 51 49 45 38 39 39 39 40 41 53 55 57 57 57 57 57 57 57 57 57 57 57 57 57 53 47 49 55 56 55 55 55 54 53 52 43 39 40 48 52 53 53 54 57 48 53 53 50 50 48 45 46 46 44 40 40 44
38 39 39 39 39 40 40 40 41 42 40 40 41 42 42 42 42 43 43 43 45 45 44 43 43 44 45 45 47 47 44 40 38 39 39 39 46 53 54 55 56 57 58 58 57 57 57 57 57 57 57 57 51 45 43 46 55 55 54 55 54 53 52 50 40 38 38 39 40 40 40 39 39 39 39 41 48 46 45 45 45 44 45 47 46
37 37 38 38 38 38 38 38 38 39 38 38 40 42 43 44 44 46 45 44 46 45 44 43 42 42 43 43 43 45 44 41 38 38 39 39 43 51 51 53 55 55 56 57 57 57 56 53 54 56 57 57 45 43 40 47 55 55 55 55 54 52 52 51 49 46 38 37 37 37 37 37 37 37 37 37 39 44 45 45 45 47 45 44 45
36 36 37 37 38 38 38 38 37 37 38 39 40 39 40 40 40 41 42 42 42 43 41 41 41 41 43 43 43 44 44 42 38 38 39 39 44 50 50 51 53 53 53 54 56 56 56 53 50 51 53 53 40 42 39 45 55 55 55 55 54 53 54 51 49 48 47 46 45 43 41 40 43 43 42 39 40 44 49 46 45 45 45 47 47
36 36 37 37 37 37 38 39 39 38 37 38 38 38 38 38 39 39 40 40 40 42 43 40 42 40 40 42 43 43 45 44 40 37 38 38 39 48 49 50 50 50 51 51 52 54 55 55 53 43 40 38 39 39 40 39 52 55 55 54 53 53 54 52 50 49 49 48 47 46 45 44 43 43 44 44 45 46 46 47 46 45 44 42 42
36 37 37 36 37 37 37 38 38 38 39 39 39 39 38 38 39 39 39 38 38 38 39 39 39 39 39 39 40 41 41 42 41 37 38 38 38 41 46 46 47 48 49 49 50 51 52 52 54 42 40 40 40 39 38 39 40 52 54 54 54 54 49 51 49 43 49 48 45 43 42 42 42 42 43 44 44 44 45 45 47 48 45 42 39
37 37 37 37 37 37 37 38 39 39 38 38 38 39 39 39 39 38 37 38 38 38 38 38 37 38 38 40 39 39 40 39 40 38 37 37 37 37 42 43 42 44 46 47 48 50 50 51 52 45 40 40 40 39 39 38 38 46 51 46 45 42 50 50 49 46 45 43 41 39 39 38 38 40 41 41 43 43 42 41 43 45 43 41 39
37 37 37 37 38 38 38 38 39 39 39 39 38 38 38 38 39 39 39 39 39 39 39 39 39 38 38 37 38 39 39 39 38 39 37 37 36 36 36 38 36 44 44 45 46 47 49 49 49 44 39 38 38 38 38 38 38 44 42 41 42 39 42 48 45 45 42 42 41 42 41 40 41 42 44 44 43 41 41 39 39 38 39 38 38
37 37 37 37 37 37 37 37 38 38 39 38 38 38 38 38 37 38 37 37 37 37 36 37 36 36 36 36 37 37 38 40 39 37 38 37 36 36 35 35 36 39 41 42 44 44 45 47 46 39 38 37 37 37 37 38 43 41 39 39 40 38 47 46 44 45 41 41 42 41 41 39 39 40 39 39 37 39 39 39 38 37 37 37 36
37 37 37 36 36 35 37 37 37 37 37 37 36 36 37 37 36 37 37 36 36 36 36 36 35 36 35 35 35 35 36 38 37 37 36 37 36 36 35 35 35 36 40 41 42 43 41 39 38 37 37 36 36 36 36 37 36 37 37 38 40 46 48 46 45 44 42 41 41 41 41 40 41 40 40 41 39 37 37 37 38 37 37 37 37
37 36 36 36 35 34 34 35 35 36 37 36 36 35 36 35 34 36 35 36 36 36 35 34 34 34 34 35 35 36 37 37 37 39 39 39 38 37 36 36 37 37 37 38 37 37 36 36 36 37 38 40 43 44 44 46 39 36 37 39 46 47 47 47 45 44 43 42 42 41 41 40 41 40 39 37 36 33 34 35 35 34 35 33 32
37 37 36 35 36 36 36 35 35 36 36 35 35 36 35 35 35 34 35 34 35 34 34 33 33 33 34 34 34 35 36 37 37 38 38 38 37 38 38 38 38 38 39 40 39 40 41 41 41 36 36 35 36 36 37 39 42 44 43 44 46 47 47 47 46 45 44 43 43 42 40 38 38 37 37 37 36 36 35 37 37 32 32 31 30
36 36 36 36 35 35 35 33 35 35 36 35 34 35 34 35 34 34 33 34 34 34 34 33 33 34 33 34 34 34 35 35 36 37 36 36 36 36 36 38 39 39 38 38 39 39 40 39 39 41 42 42 41 42 42 44 43 42 45 45 46 46 45 42 42 46 46 45 43 40 38 38 37 38 37 37 35 37 35 35 34 32 31 31 30
37 37 37 35 35 35 35 35 35 36 36 36 35 35 36 36 34 35 37 35 35 35 35 34 34 34 33 34 34 35 35 35 37 35 36 35 35 36 37 37 37 37 38 35 37 39 40 41 41 42 41 39 37 40 41 42 42 44 45 45 45 44 44 43 43 43 43 41 39 39 38 38 37 36 37 35 35 35 37 37 34 32 31 30 29
37 37 36 35 35 35 36 35 36 35 36 36 36 37 34 34 35 35 36 35 35 35 35 35 35 35 35 35 37 35 35 36 35 35 35 35 35 35 35 35 35 35 35 34 35 37 37 38 39 39 38 39 37 37 37 40 39 40 41 40 42 43 42 42 41 41 39 38 38 35 36 35 36 36 36 34 34 34 35 33 33 32 31 30 29
36 35 35 35 35 36 36 36 36 36 36 36 37 36 37 37 34 34 35 35 35 35 34 34 34 34 35 36 36 35 35 35 35 35 35 35 35 35 35 35 35 35 34 34 36 35 35 35 36 37 38 39 37 37 37 37 37 37 39 39 41 41 38 40 40 36 34 34 35 35 34 35 35 36 35 36 35 35 33 32 31 32 31 30 29
34 34 34 34 35 34 36 36 36 36 36 36 36 35 35 36 37 35 35 35 35 35 34 34 34 34 34 35 35 37 35 35 35 35 35 35 35 35 35 35 35 35 34 34 35 35 35 35 35 36 38 37 37 35 37 37 38 38 38 38 39 39 38 38 37 36 34 34 33 32 32 33 34 33 34 32 31 31 31 30 31 31 30 29 30
36 35 34 35 35 35 35 35 36 36 36 35 36 35 34 34 34 34 35 35 34 34 34 34 34 34 34 34 35 34 34 34 35 35 35 34 34 34 35 34 35 34 34 35 35 35 36 37 38 39 39 37 37 37 37 38 37 38 39 38 36 37 38 37 36 35 34 34 33 32 31 31 31 30 30 30 30 30 31 30 31 31 30 30 28
36 35 35 36 36 36 35 35 35 34 35 35 35 35 34 35 35 34 33 33 35 35 34 34 33 34 34 34 34 34 34 34 34 34 34 34 34 34 34 36 35 35 34 36 37 36 37 39 38 38 39 38 38 37 35 36 37 37 38 40 40 39 37 36 35 32 32 32 32 31 31 31 30 29 29 30 31 30 29 29 31 30 29 29 30
36 33 32 33 36 36 36 35 35 35 35 35 34 34 35 35 34 34 33 33 33 33 33 35 34 33 34 33 34 34 33 33 33 34 34 34 34 34 34 38 36 36 38 39 38 38 38 38 38 39 40 39 37 35 35 37 37 36 36 37 38 36 35 34 33 33 32 33 32 31 30 31 31 29 29 29 29 29 29 29 30 29 29 30 28
36 34 36 36 36 36 36 36 35 35 34 34 35 35 33 34 34 33 33 34 34 33 33 34 35 34 33 33 33 33 33 33 33 33 33 33 34 34 36 36 36 37 37 37 38 39 38 38 38 39 39 39 39 37 37 37 37 37 37 35 33 33 32 32 32 32 32 32 30 30 30 30 29 29 30 30 31 30 29 29 28 28 29 29 27
35 35 35 35 35 36 36 36 36 35 32 33 35 34 34 34 34 34 34 33 33 34 34 34 35 36 34 34 34 33 33 33 33 33 33 33 33 35 36 36 36 37 37 39 39 39 39 39 39 39 39 38 38 38 37 37 38 36 33 35 33 33 31 31 31 30 30 29 29 30 30 29 30 30 29 29 29 29 28 28 28 28 28 29 30
36 35 35 36 36 37 37 35 34 32 34 34 35 35 34 34 34 34 33 33 32 33 35 34 34 33 33 32 35 33 32 32 32 32 32 32 32 34 35 35 36 37 37 38 39 39 38 39 39 39 38 38 38 37 36 36 34 33 33 33 31 31 31 30 32 32 31 30 29 29 29 29 30 30 29 28 27 27 27 28 27 27 28 30 29
36 31 31 31 32 35 35 34 33 33 33 34 34 34 33 33 34 34 33 33 33 33 33 34 33 33 32 33 32 33 32 31 31 30 31 32 33 33 34 34 35 35 36 36 38 38 38 37 37 37 37 38 36 35 36 33 32 32 32 31 31 30 29 29 30 30 30 29 29 29 29 29 29 28 27 27 28 28 28 28 27 27 27 27 27
35 34 33 31 33 34 34 33 34 33 33 33 33 34 34 34 34 34 34 33 33 33 34 33 33 32 32 32 32 32 31 31 31 31 31 32 32 33 33 33 33 34 33 34 36 37 37 37 37 37 36 37 36 35 35 32 32 31 31 30 30 30 31 30 30 30 29 29 29 29 28 28 28 28 28 28 28 29 28 27 27 27 27 28 28
34 35 32 32 32 35 34 33 32 33 32 33 34 35 35 34 34 33 34 33 32 33 33 33 32 32 31 31 32 32 32 32 31 31 31 31 32 32 32 33 32 33 33 33 34 34 35 35 35 35 34 34 34 33 34 32 31 31 31 32 32 31 31 30 30 30 29 29 28 28 28 28 28 28 28 29 30 28 27 27 27 27 29 30 28
35 34 34 34 35 34 33 32 33 34 34 34 35 35 34 34 34 34 32 32 31 32 33 33 33 32 32 32 32 32 33 32 31 31 31 32 32 32 32 32 32 32 33 33 33 32 33 33 33 33 32 32 31 32 32 32 31 32 32 31 31 30 29 29 29 29 29 28 29 29 29 28 29 29 29 30 28 27 27 27 28 29 29 28 28
34 33 34 34 34 33 33 33 32 31 32 34 35 34 34 35 35 34 34 32 32 31 32 32 32 33 32 32 32 32 33 32 31 32 32 31 32 31 32 32 32 32 31 32 32 32 31 31 31 32 32 32 33 32 32 32 32 31 31 30 30 29 29 28 28 29 29 29 29 29 30 30 29 28 28 28 28 28 27 28 29 27 27 28 28
34 33 33 33 33 33 33 32 31 32 33 34 34 33 35 35 35 34 34 34 32 32 32 32 32 32 33 33 33 33 33 33 32 32 32 32 32 31 32 32 32 32 31 31 31 31 30 30 30 31 32 32 33 33 32 32 32 31 31 30 30 30 29 29 29 30 30 29 29 29 29 29 29 28 29 29 29 28 28 29 28 27 27 27 26
35 34 33 33 33 33 32 33 32 32 33 34 35 34 34 34 33 32 32 32 31 31 32 32 33 32 32 33 33 33 33 33 32 32 32 32 32 32 32 32 31 31 30 30 30 30 29 29 29 29 30 30 31 31 31 31 31 31 31 31 30 30 30 30 30 30 30 30 29 29 29 29 29 28 27 28 28 27 25 27 27 28 26 27 28
34 33 33 33 32 32 32 33 32 33 33 33 34 34 34 33 33 33 32 32 32 32 32 33 33 33 32 32 32 32 33 33 33 32 32 32 31 30 30 30 30 29 29 28 28 29 28 28 27 28 28 29 30 30 31 31 31 31 31 30 28 27 27 28 29 29 30 30 29 29 29 29 29 28 28 27 27 27 28 28 28 26 26 26 28
36 34 34 33 32 32 32 33 32 32 33 33 34 33 33 34 33 33 32 32 32 32 32 33 33 33 32 32 32 32 32 32 32 32 32 31 30 30 30 29 28 28 27 28 27 26 26 26 26 27 27 27 28 29 29 30 30 30 30 29 29 29 27 27 28 28 29 29 29 29 29 28 28 28 29 28 27 27 27 27 27 28 26 26 26
34 33 33 33 33 32 32 33 32 32 33 33 33 33 32 33 33 33 32 32 32 32 32 33 33 33 33 33 32 32 32 32 31 32 31 31 31 30 30 29 27 27 27 26 26 25 25 25 25 26 26 26 27 27 28 28 29 29 29 29 29 29 29 30 30 30 29 30 29 30 30 28 27 28 28 28 28 27 27 26 26 25 26 25 26
34 34 33 33 32 33 32 32 32 32 33 33 34 33 32 33 32 32 32 32 32 32 33 32 32 32 32 32 32 32 31 31 31 32 31 31 31 30 29 29 28 28 26 25 25 25 25 25 24 24 24 24 26 26 27 28 28 28 29 29 28 28 29 30 30 29 29 30 29 30 30 30 29 29 28 28 28 27 25 26 25 25 25 26 25
34 34 34 33 33 32 32 32 32 32 33 33 33 33 33 33 33 32 32 33 32 33 33 33 33 32 32 31 32 32 32 32 31 32 31 31 30 29 28 29 28 27 26 25 24 25 24 25 24 24 24 24 24 25 25 26 27 28 28 27 26 27 27 27 28 28 30 30 30 29 30 28 29 28 27 27 28 27 27 26 26 26 25 26 26
33 34 33 33 32 33 33 33 32 32 32 32 33 33 32 33 33 33 32 33 33 33 33 33 33 33 32 32 31 32 31 31 31 30 30 30 30 29 28 28 27 26 26 25 24 23 24 24 22 23 23 23 24 24 24 25 24 24 23 24 24 25 25 26 27 24 25 27 29 28 27 28 28 27 26 25 25 25 25 26 26 25 25 23 24